Theta_e
337 338 338 339 341 340 338 339 341 340 340 340 340 338 338 337 337 336 336 335 333 333 331 330 330 332 333 333 332 332 331 330 329 325 323 323 322 322 325 324 323 322 322 321 320 316 314 312 316 318 321 321 321 315 314 314 314 314 315 314 314 314 314
341 339 339 338 338 339 339 339 339 339 339 339 338 337 337 336 335 335 334 333 332 332 331 331 332 332 331 331 331 329 329 327 327 327 324 321 322 321 324 322 322 320 320 320 320 320 313 313 312 313 314 318 321 314 313 315 315 315 315 314 314 314 314
338 338 338 336 336 338 337 337 337 337 337 336 338 337 336 335 334 334 333 332 332 331 330 331 331 330 329 329 329 329 328 326 326 325 324 323 323 323 322 321 319 320 320 318 317 316 317 315 311 311 312 313 311 310 312 313 314 314 314 314 314 314 314
337 337 335 335 335 337 335 335 335 336 336 335 335 336 335 334 334 334 332 331 332 331 331 331 329 328 328 328 327 327 327 326 324 324 324 324 322 321 320 318 316 316 315 314 314 314 314 312 311 309 310 314 306 306 310 313 314 313 314 313 313 313 313
335 335 335 334 335 335 335 335 335 335 335 334 333 333 334 333 333 331 331 331 330 330 330 329 329 328 327 327 326 325 324 325 324 323 323 322 321 319 319 319 317 317 316 315 315 314 312 312 311 309 307 312 308 305 309 312 314 312 313 312 312 313 313
337 336 336 335 336 335 335 335 334 333 333 332 332 332 332 332 331 331 331 330 329 329 328 327 327 326 325 324 323 322 322 321 321 322 319 320 319 318 317 317 317 316 314 315 313 312 312 312 310 309 308 309 307 306 309 310 308 311 312 312 312 311 312
337 338 339 337 336 336 336 334 333 333 332 333 332 331 331 331 331 331 330 329 329 328 327 326 326 324 324 322 321 321 320 321 321 320 320 319 319 318 318 314 314 312 312 313 313 312 311 310 308 310 311 308 309 306 307 308 307 306 309 311 311 311 312
338 338 337 336 336 336 336 335 334 333 333 333 331 331 331 331 330 330 330 329 328 326 326 325 324 323 322 320 320 321 320 320 319 318 318 317 316 316 316 313 312 312 311 311 311 311 311 311 310 310 311 310 308 307 305 307 308 304 306 309 309 310 312
337 335 336 336 336 337 336 335 333 334 334 333 332 331 330 330 329 328 327 327 326 325 324 323 323 322 321 319 318 319 318 319 318 317 316 316 316 315 314 313 312 310 312 311 311 311 312 312 311 311 310 311 308 305 305 302 305 305 307 306 309 310 311
336 336 335 335 337 337 336 335 334 334 334 333 331 330 329 329 328 328 326 325 325 324 323 322 321 320 320 319 318 318 317 317 317 315 315 315 314 313 312 312 310 310 311 312 312 312 312 313 311 310 310 309 311 307 303 300 301 304 306 308 305 306 310
335 336 336 336 336 334 334 336 336 333 332 331 330 329 329 328 327 326 325 324 324 323 322 321 320 319 319 317 318 317 316 316 315 315 314 313 313 313 312 312 311 310 312 311 311 313 313 312 310 310 309 310 312 308 306 301 300 304 305 308 307 305 309
336 336 336 336 335 334 334 335 335 334 333 331 329 329 328 327 326 325 324 323 323 322 321 320 319 318 317 316 316 315 316 315 314 313 314 313 313 312 312 311 311 310 311 311 311 311 312 312 310 309 308 309 311 312 308 305 301 302 308 304 307 309 308
335 334 335 335 334 333 334 334 334 333 331 330 329 328 327 326 325 324 323 322 321 321 320 319 319 317 317 315 315 314 313 313 312 312 312 312 311 311 311 310 311 310 310 309 310 310 309 310 311 309 308 308 309 311 309 305 302 301 305 306 306 308 309
335 335 335 335 335 335 335 335 334 333 331 330 329 327 326 326 325 323 322 322 320 320 319 318 318 317 315 314 313 313 312 312 311 311 311 311 311 310 309 308 308 309 310 309 309 309 309 309 309 309 309 307 306 309 309 307 303 302 304 308 306 306 309
335 334 333 333 334 334 334 334 333 332 331 329 329 327 326 326 325 323 322 321 320 319 318 316 316 315 313 313 313 313 313 311 311 311 311 310 310 310 309 307 307 308 309 308 309 308 309 307 308 306 306 307 306 307 310 308 305 303 301 305 305 307 306
334 334 333 333 334 333 333 333 332 332 331 329 328 327 326 326 324 323 321 321 319 318 317 315 315 314 312 311 311 312 312 312 311 310 310 309 308 309 308 308 308 309 309 308 309 309 310 309 308 307 307 307 307 307 308 308 306 304 303 301 305 304 306
333 334 333 333 333 333 333 332 332 331 330 329 327 327 327 325 323 322 321 320 319 317 316 315 314 312 311 311 311 310 311 312 311 310 310 309 309 309 309 308 308 309 309 308 308 308 308 309 308 307 307 307 307 307 308 308 307 306 304 302 303 303 305
333 334 333 332 333 333 332 332 331 330 330 328 327 326 325 325 323 322 321 319 318 317 316 314 312 312 311 312 311 311 311 311 311 311 311 310 310 310 310 309 308 308 308 308 308 307 308 308 308 308 307 306 306 307 308 308 307 306 304 303 303 304 305
333 333 333 332 332 332 332 331 330 329 328 327 327 326 325 324 323 322 320 319 319 317 316 315 312 311 311 311 312 312 312 312 311 311 311 310 310 311 310 309 309 308 308 307 307 307 308 308 307 307 307 307 307 308 308 308 307 307 306 303 303 303 305
333 333 333 332 332 331 331 330 329 327 327 326 326 325 325 324 323 322 321 320 318 317 316 314 313 312 311 311 311 311 311 311 311 312 311 311 311 311 310 310 310 309 308 308 308 307 308 308 308 307 307 308 308 308 307 307 307 306 305 304 303 303 302
333 332 333 333 332 331 330 329 328 327 326 325 325 324 324 324 323 322 321 320 319 318 317 315 313 311 311 311 311 311 311 311 311 311 312 312 312 311 311 310 310 310 310 310 310 310 310 308 308 307 308 309 308 308 307 306 306 304 305 304 302 301 301
332 331 331 331 331 330 329 327 326 325 325 325 325 325 325 324 323 322 321 320 319 319 317 316 314 312 311 310 311 311 310 311 311 311 311 312 311 311 311 311 311 308 308 307 304 305 304 305 310 308 308 309 308 307 307 307 305 304 303 304 303 303 301
331 331 331 330 329 328 326 325 324 323 323 324 324 324 325 324 323 321 320 319 319 319 317 317 313 306 306 311 311 310 311 311 310 311 311 311 311 311 311 311 309 308 307 305 302 298 297 297 300 305 306 308 309 308 306 306 305 303 303 302 302 302 300
329 329 329 329 327 325 323 323 322 322 321 321 322 323 324 323 322 322 320 319 319 319 318 315 300 299 299 302 310 312 311 311 311 311 311 311 311 311 310 308 309 308 307 304 303 296 296 295 295 295 295 297 299 305 308 306 305 305 302 301 303 303 301
329 328 327 325 324 322 322 322 321 321 320 320 321 323 323 322 322 322 321 320 319 319 318 304 296 297 298 299 304 311 312 311 311 311 311 310 310 311 310 310 309 310 309 307 306 304 301 296 294 294 294 295 294 294 294 303 306 305 304 302 301 302 303
328 327 325 323 322 321 320 320 320 319 319 320 321 321 322 322 322 322 321 319 319 318 317 297 296 296 297 298 299 307 312 312 311 311 311 311 310 310 311 311 311 311 308 306 306 306 305 304 298 296 296 296 296 296 294 293 294 306 308 304 303 301 302
324 324 323 321 320 319 319 319 320 320 320 319 319 321 323 322 322 321 321 320 319 318 315 297 295 295 296 296 297 300 313 312 312 311 311 311 311 311 311 311 310 309 309 309 310 308 307 306 305 307 308 308 307 304 295 294 294 295 302 306 305 303 303
322 320 319 318 318 319 319 320 320 319 319 318 318 320 322 322 322 322 321 320 319 318 313 294 294 294 294 294 295 297 313 312 312 312 311 311 311 311 311 311 311 310 309 310 311 309 309 308 309 308 307 307 308 307 308 307 307 309 308 308 307 306 305
321 318 315 315 316 318 319 320 319 319 318 318 318 320 321 322 321 321 320 320 319 317 310 293 293 293 293 294 293 309 312 312 312 311 311 311 311 311 311 311 311 310 310 310 306 298 302 314 308 307 306 307 307 307 304 304 296 297 306 307 307 307 306
319 317 316 315 315 318 319 318 319 318 317 317 316 317 318 320 320 320 319 319 318 316 308 296 292 293 293 292 298 309 311 310 311 310 310 310 310 310 311 310 311 310 309 310 302 295 295 298 309 306 306 307 307 307 306 308 296 291 292 292 290 289 288
316 314 315 315 317 318 319 319 318 317 317 316 315 316 317 317 319 319 319 318 318 315 310 299 292 292 292 292 300 309 310 309 310 310 310 310 310 310 310 305 309 310 309 311 295 294 294 302 309 307 307 307 306 306 305 306 308 308 293 292 292 292 291
316 315 315 317 318 318 317 315 315 316 317 316 315 315 315 316 316 316 317 318 311 313 311 300 292 292 292 292 301 310 308 309 308 309 309 308 310 310 310 306 301 303 308 307 291 293 293 300 309 307 307 307 304 304 305 307 308 308 308 308 307 306 303
316 316 316 316 316 317 315 313 313 314 314 314 313 312 312 314 313 314 315 315 312 313 310 305 298 291 292 293 294 309 309 308 307 308 308 307 307 309 309 308 302 291 291 291 291 292 292 292 308 309 307 307 305 303 306 306 305 306 305 304 305 305 305
315 316 316 317 316 314 313 313 312 312 311 311 310 310 311 311 311 312 312 312 311 312 310 307 300 291 292 293 293 296 309 308 308 307 307 306 306 307 307 306 307 293 290 291 291 290 292 291 293 307 308 308 308 305 301 306 303 300 306 305 305 305 305
316 316 315 312 311 311 312 313 312 312 311 310 309 308 309 308 308 308 309 309 310 310 308 304 303 292 292 292 293 293 305 309 307 307 305 305 305 306 306 306 308 296 289 290 290 290 291 292 290 305 314 292 289 292 304 306 306 307 306 304 303 302 303
313 314 312 311 311 310 310 310 310 310 310 309 309 307 305 306 306 306 306 306 307 307 306 303 297 298 292 292 292 293 291 299 296 309 306 305 305 305 307 308 303 291 290 289 290 290 291 290 292 302 288 290 293 289 295 305 305 305 304 303 302 303 301
312 312 310 309 309 308 308 307 306 307 307 307 305 305 305 306 305 304 303 303 304 304 305 302 296 295 295 290 292 291 292 293 297 305 307 306 306 305 306 307 301 289 290 289 289 290 290 291 299 289 290 290 289 291 303 305 302 305 300 300 300 301 302
Wind_Speed
8 8 8 7 7 6 6 7 7 5 5 4 3 3 3 3 4 4 4 4 4 4 4 4 4 4 3 4 4 4 4 4 5 4 4 5 4 4 4 4 4 4 4 4 5 5 4 4 2 4 4 5 6 7 7 7 7 8 8 8 9 9 8
7 7 6 7 7 8 9 7 7 6 5 4 4 4 3 4 4 4 4 4 4 4 4 5 4 4 5 5 4 4 5 5 5 4 4 5 5 5 3 3 2 2 2 3 3 3 4 4 2 4 5 3 4 6 6 5 6 6 7 8 8 9 8
6 6 8 9 8 8 9 9 7 7 6 5 5 4 4 4 4 5 5 5 5 5 5 5 4 5 5 5 5 5 5 5 5 5 5 4 5 5 5 4 3 1 1 1 3 3 1 2 3 4 4 4 4 5 5 5 6 7 7 8 9 9 9
9 8 8 10 9 10 10 9 8 7 6 6 5 5 5 5 5 5 5 5 5 4 4 4 4 5 4 4 5 6 5 5 5 5 6 6 5 6 6 5 4 4 4 3 4 3 3 3 3 3 3 3 5 4 5 5 5 7 8 8 9 9 9
11 9 11 12 10 11 10 9 8 8 7 7 6 5 5 5 6 5 5 5 5 5 4 4 4 4 4 3 4 4 5 5 5 5 6 6 6 5 5 4 4 4 4 4 4 4 4 4 3 3 4 1 3 5 5 5 3 7 7 9 9 9 9
10 11 11 11 11 10 9 9 8 8 8 7 6 6 6 7 6 6 5 5 5 5 5 5 5 5 4 4 5 6 6 6 6 6 7 7 7 5 4 4 4 4 4 4 4 4 4 3 4 3 4 3 2 4 4 6 6 6 7 8 9 9 8
10 10 9 10 10 9 9 9 8 8 8 7 7 7 7 7 6 6 5 6 6 6 6 6 6 5 4 4 5 6 6 6 6 7 8 7 6 6 4 5 5 5 5 4 4 4 5 5 5 4 3 3 3 4 5 5 9 7 7 7 9 9 9
6 4 8 8 9 9 8 9 8 8 8 7 7 7 8 8 7 7 6 6 6 6 6 6 6 5 4 5 5 6 6 6 7 7 7 7 7 7 6 5 5 5 5 5 5 5 5 6 6 5 5 2 4 4 5 5 5 12 10 6 8 10 9
9 9 6 5 8 9 9 9 9 8 7 7 8 8 8 8 8 8 7 7 7 6 6 6 5 5 5 5 6 6 6 4 7 8 7 7 7 6 6 5 5 5 5 5 5 5 5 5 5 5 6 5 5 3 5 7 6 7 11 9 7 10 10
9 11 10 11 10 9 8 9 9 8 8 8 8 8 8 8 8 8 8 7 6 6 6 6 6 6 6 5 6 6 6 6 7 7 6 6 6 6 6 6 5 5 5 5 5 5 5 4 5 5 5 6 6 4 4 6 8 6 8 9 8 9 10
12 11 10 11 10 11 9 8 8 9 8 8 8 9 9 9 9 8 7 7 6 6 7 6 6 6 6 6 6 6 6 6 7 6 6 6 6 5 5 5 5 6 5 5 6 5 5 4 5 5 6 6 6 6 5 5 6 7 6 7 8 8 10
10 10 9 10 10 12 12 10 10 9 9 9 9 10 10 10 9 8 8 7 7 7 7 7 6 6 6 6 6 5 5 6 6 7 6 6 5 5 5 6 6 6 5 6 5 5 5 5 5 5 6 6 6 6 6 5 5 6 6 6 6 7 9
12 12 12 12 11 12 12 11 10 10 10 9 10 10 10 10 9 9 8 8 7 7 7 6 6 6 6 6 5 6 6 7 8 7 7 6 5 6 6 6 6 5 5 5 5 5 6 6 6 6 6 6 6 6 5 5 7 6 6 5 6 6 9
13 12 13 13 13 13 12 11 10 10 10 10 10 10 10 10 10 9 9 8 8 7 7 7 6 6 6 6 6 7 7 8 8 7 7 7 6 6 7 8 8 7 6 6 5 5 6 6 6 6 6 6 6 6 6 6 6 6 6 5 5 6 8
13 12 13 13 11 13 12 11 11 11 10 10 10 10 11 10 9 10 9 9 8 8 8 7 7 6 7 7 7 5 7 8 8 8 7 7 7 5 6 8 8 8 7 7 6 6 6 7 7 7 7 7 7 7 7 5 5 5 6 6 6 7 7
13 14 14 13 14 13 13 12 11 11 11 10 10 10 10 10 10 10 9 9 8 8 8 7 7 7 7 7 7 7 7 8 8 8 8 8 7 7 7 7 7 6 5 6 6 6 6 6 6 7 7 6 7 6 6 7 5 5 5 6 6 6 7
15 15 15 13 14 14 11 11 10 11 11 10 11 10 10 10 10 10 9 9 9 8 8 7 8 7 8 8 8 9 8 8 7 7 7 8 7 6 7 7 6 6 6 6 6 6 6 6 6 6 6 6 6 6 6 6 6 5 5 5 7 7 7
15 15 15 14 15 14 11 11 10 11 11 10 11 11 10 10 10 10 9 9 9 8 8 8 8 8 7 7 8 8 8 8 8 7 7 7 7 6 6 6 6 6 6 6 6 6 6 7 6 6 5 5 5 5 5 5 5 5 5 6 5 7 7
15 16 15 14 15 13 11 11 11 9 11 11 11 11 11 9 9 10 10 10 9 9 8 8 8 9 8 8 8 8 8 8 8 8 8 7 7 6 6 6 7 6 6 6 6 6 6 7 6 6 6 6 5 5 5 5 5 5 5 6 6 6 7
14 14 14 14 14 12 11 11 11 11 10 11 11 11 11 11 9 10 10 9 9 9 9 8 8 8 9 9 9 9 9 9 8 7 7 8 7 7 7 6 6 6 6 6 6 6 5 6 5 6 5 5 5 4 4 4 4 5 5 5 6 7 7
11 12 12 14 14 12 11 11 10 10 10 11 11 11 11 10 10 9 9 9 9 9 8 8 8 9 9 9 9 9 9 9 8 8 8 7 7 7 7 7 6 6 6 6 5 5 5 4 4 5 4 4 5 4 4 4 4 5 5 6 7 7 7
11 14 14 14 15 12 11 10 10 10 9 10 9 11 11 11 11 10 10 9 9 8 8 7 7 8 9 9 9 9 9 9 9 9 8 8 7 7 7 7 7 8 10 10 12 10 10 9 5 4 4 4 5 5 4 4 5 5 5 6 7 7 7
14 14 16 15 15 12 11 10 10 10 10 10 10 10 11 11 10 10 10 10 9 8 7 6 6 7 8 9 9 8 8 9 9 8 8 8 7 7 7 7 9 13 11 10 9 11 12 13 12 10 7 6 5 4 5 5 5 5 6 6 7 7 8
13 15 15 14 11 11 11 10 10 10 10 10 10 11 12 12 11 10 11 10 10 8 7 6 10 6 4 7 9 8 8 8 8 8 8 8 7 7 8 9 9 10 10 9 9 10 10 9 9 9 10 10 10 8 6 5 6 6 6 7 6 6 7
13 13 12 12 12 11 11 11 11 10 10 10 10 10 12 12 12 11 10 10 10 8 7 11 11 8 7 6 5 8 8 8 8 8 8 7 7 7 8 8 7 7 6 8 9 8 8 7 7 8 8 8 9 9 8 8 6 6 6 6 7 7 6
14 13 12 12 11 10 11 11 11 11 11 10 9 10 12 12 12 11 10 11 10 9 8 12 11 10 9 7 4 6 8 7 7 7 7 7 7 7 7 7 7 5 7 12 8 8 8 7 6 6 9 8 5 5 6 8 8 8 5 6 6 7 7
12 12 12 11 10 11 11 11 10 10 9 9 9 10 12 12 11 11 11 10 10 9 9 12 12 11 10 8 7 8 7 8 7 7 7 7 7 7 7 7 7 7 7 8 6 7 7 7 7 6 6 4 4 4 5 5 5 5 4 6 6 6 6
13 12 10 10 11 11 11 10 11 10 9 10 10 10 12 12 10 10 10 10 10 9 8 14 12 12 10 9 8 8 6 7 7 7 7 7 7 7 7 6 7 7 8 7 5 4 6 5 4 3 3 3 2 4 4 5 5 5 5 5 5 5 5
13 13 11 9 10 11 11 12 12 10 9 9 8 8 9 9 10 10 10 11 10 9 9 15 12 12 10 10 8 7 7 7 7 7 7 7 7 6 6 6 7 7 7 7 7 1 6 1 5 3 3 3 3 4 5 4 3 5 6 5 5 5 5
11 13 14 12 11 12 11 11 10 9 10 10 9 9 9 8 9 10 10 10 10 9 10 11 12 12 11 11 9 9 7 8 7 8 8 7 7 6 6 7 6 6 7 6 9 6 4 7 2 3 3 2 2 2 4 4 4 3 3 2 2 2 2
11 10 11 13 12 10 10 8 9 10 11 11 10 10 9 8 9 9 10 10 10 9 10 11 12 12 12 12 11 8 8 8 8 7 8 7 7 7 5 6 5 5 7 6 12 10 7 6 4 3 3 3 4 3 4 3 4 5 6 5 6 8 8
13 12 12 10 10 10 10 10 9 9 9 9 9 8 8 8 8 7 9 9 9 10 10 11 12 12 12 13 11 7 8 7 8 8 7 8 6 6 6 6 1 5 4 10 13 10 8 8 4 3 2 3 2 2 2 2 2 3 5 6 6 7 7
13 14 13 11 10 9 8 8 9 9 8 8 8 8 8 7 8 8 8 8 8 8 10 10 11 12 12 12 13 8 8 7 8 8 7 8 7 6 7 7 5 3 5 9 10 11 8 8 7 2 3 3 2 3 3 1 3 3 1 1 1 1 1
13 12 13 11 10 9 8 9 9 9 9 7 7 7 9 8 8 7 7 8 9 8 8 11 11 13 12 12 13 12 6 7 7 7 7 7 7 7 7 7 7 8 6 7 8 8 7 6 6 5 4 1 4 6 4 3 5 6 3 2 3 3 2
8 8 7 8 9 8 7 7 8 9 7 8 9 8 8 7 7 7 6 7 7 7 8 10 10 12 11 12 12 13 8 7 6 7 6 7 7 7 6 6 7 8 8 8 7 7 5 5 5 8 3 8 5 2 5 3 3 5 4 3 1 1 1
9 8 8 8 9 8 7 7 6 6 7 7 7 7 6 7 7 7 6 6 6 7 8 7 11 11 11 11 11 13 9 9 2 4 7 7 6 6 5 5 8 10 9 8 7 7 6 5 6 3 6 3 4 2 5 6 2 3 2 1 1 1 1
8 7 8 8 5 8 8 8 7 6 7 8 7 7 6 6 7 7 7 7 6 7 7 7 9 11 10 10 10 9 5 6 4 4 4 6 5 4 6 5 8 10 9 8 7 7 6 6 1 7 4 4 3 4 6 5 5 3 2 3 3 2 2
Wind_Direction
164 173 172 166 153 147 145 156 161 156 152 132 125 120 116 109 99 100 99 94 93 81 81 70 62 55 68 66 46 40 39 37 31 36 48 30 26 74 52 52 87 81 47 31 3 346 332 323 79 65 64 24 53 41 24 10 7 4 2 2 1 0 1
165 158 149 147 158 160 156 168 166 147 135 124 127 126 115 102 111 105 105 107 93 86 77 86 75 73 62 58 55 54 51 50 43 39 47 46 40 33 37 66 54 43 92 62 8 350 356 325 41 9 11 12 92 53 26 22 14 9 9 6 2 4 0
147 153 167 156 165 169 164 167 157 154 144 142 137 126 118 112 107 111 109 104 94 74 72 77 89 81 74 71 61 62 65 67 58 53 47 54 55 49 31 18 28 54 73 71 42 6 34 357 329 0 20 357 24 48 26 18 16 13 16 11 7 11 7
153 168 170 163 175 173 169 165 166 156 149 145 139 125 120 114 118 113 112 102 93 95 87 92 82 79 84 88 85 78 66 61 71 73 69 58 59 55 42 39 45 33 20 30 13 14 348 10 338 30 45 37 34 50 41 25 13 19 21 17 16 14 8
159 175 181 179 179 176 172 168 161 154 149 146 142 133 131 130 121 117 125 118 103 91 89 82 83 86 86 82 82 79 79 75 72 70 65 63 61 69 54 54 53 43 37 24 14 3 0 16 350 9 35 24 81 48 43 30 50 35 26 22 22 16 12
181 175 184 189 177 178 173 167 164 156 151 150 147 143 139 142 134 138 132 120 107 95 95 93 87 85 85 85 87 83 75 71 66 64 67 59 51 49 66 58 51 47 42 27 16 12 11 352 1 4 63 31 47 50 64 42 25 55 33 33 24 19 14
193 183 184 182 188 181 170 169 169 155 151 149 146 144 145 142 135 126 120 104 98 104 100 93 90 86 91 96 89 86 84 79 79 76 73 70 65 57 51 57 47 49 46 33 26 25 18 13 21 11 329 89 21 78 51 51 44 27 30 36 29 24 15
162 210 195 185 184 180 171 167 163 154 148 148 143 137 144 139 133 132 126 120 108 104 104 103 100 100 100 98 91 85 81 79 80 78 76 73 70 65 57 56 61 53 45 37 34 28 31 21 14 359 343 317 129 66 57 43 53 42 18 23 28 24 16
175 185 204 178 183 179 165 163 161 152 145 138 137 142 140 141 136 133 130 116 114 111 110 110 112 109 106 101 97 95 94 92 91 91 91 83 76 70 68 67 68 58 47 39 39 37 30 17 13 8 357 2 351 68 67 49 31 49 34 13 29 30 15
182 184 176 184 181 171 165 161 160 148 139 140 141 141 142 140 141 135 124 121 116 114 111 109 109 108 107 102 100 99 94 91 87 82 79 80 82 77 74 69 69 67 58 50 42 38 33 20 24 17 19 13 345 12 37 53 37 12 34 24 4 16 14
183 188 187 177 171 165 166 166 154 149 145 142 142 145 145 142 138 134 125 123 120 116 115 113 111 111 109 102 102 98 95 98 96 90 82 81 79 79 75 73 73 71 56 54 52 38 31 27 30 33 28 26 13 24 17 45 58 22 13 29 17 4 3
178 175 183 171 171 167 167 166 161 149 143 143 146 149 147 144 143 136 132 127 125 123 117 116 120 116 115 112 109 106 104 99 95 93 90 91 90 88 86 83 80 74 68 61 56 50 43 29 35 41 37 36 31 13 21 35 63 54 6 17 14 13 2
173 175 178 173 171 173 169 163 159 147 146 146 150 152 149 148 142 139 137 131 129 125 124 123 120 120 119 112 111 106 107 106 102 102 102 94 95 94 90 82 70 69 66 71 63 56 52 46 36 39 37 39 41 17 21 52 61 54 31 10 7 9 13
174 175 176 174 173 171 170 162 160 149 149 148 153 154 151 148 143 141 140 137 131 127 125 124 125 125 118 113 106 109 113 111 109 107 108 105 99 94 89 86 80 72 66 65 65 62 53 49 49 44 38 41 43 30 21 38 44 55 47 18 19 15 18
173 171 170 173 168 173 168 163 160 151 150 150 157 156 152 148 144 145 141 136 131 127 128 126 130 125 120 119 116 115 115 115 115 114 111 105 101 94 90 87 83 76 67 68 63 60 57 54 50 48 44 40 42 42 19 18 54 41 44 23 23 29 23
171 169 167 169 173 172 168 162 161 159 150 155 159 158 152 150 147 145 141 137 133 130 127 128 128 127 125 127 126 125 122 121 122 122 119 113 108 106 102 96 91 86 79 77 71 67 62 59 58 56 51 46 44 39 38 25 23 45 40 44 14 21 17
172 169 167 169 174 171 161 157 156 156 148 154 160 157 155 151 148 147 143 139 136 136 131 132 134 131 132 129 132 131 128 127 126 123 120 117 114 109 103 101 95 91 85 76 71 69 59 55 57 56 56 55 53 42 36 38 29 27 27 40 34 21 18
171 170 167 171 173 169 157 156 161 153 151 157 159 159 157 152 151 149 148 146 142 139 138 137 134 134 132 137 132 133 133 128 126 121 114 111 112 112 106 97 94 90 85 80 75 68 61 55 52 51 52 56 49 45 44 35 33 29 35 30 36 35 22
171 170 168 169 171 164 156 157 154 153 152 154 160 162 157 155 156 152 152 148 144 141 139 137 137 141 140 140 138 133 131 132 128 125 124 121 116 112 107 100 93 87 81 80 74 69 61 57 55 53 49 40 45 45 42 41 37 33 33 45 28 30 34
169 169 168 169 172 164 157 154 155 153 152 152 156 164 161 158 157 156 151 148 148 143 139 140 139 144 147 146 143 140 136 135 133 129 125 120 118 114 108 102 95 86 84 81 77 72 72 63 56 53 41 40 32 32 38 34 35 44 38 34 44 34 26
169 162 168 171 173 163 154 155 154 149 151 156 161 163 162 160 156 158 150 152 147 144 142 145 147 152 154 151 148 146 142 142 138 134 128 125 121 118 114 110 104 94 79 65 58 67 51 61 63 48 41 34 31 24 30 37 33 41 44 46 37 34 30
163 168 171 172 172 160 154 149 148 148 153 159 165 166 168 161 160 157 154 152 149 148 151 149 155 161 156 155 153 150 149 146 144 140 137 131 127 123 118 108 96 85 76 66 49 44 43 21 12 56 45 37 34 32 27 32 40 40 46 40 42 35 31
171 167 171 171 170 153 146 144 146 148 153 157 163 170 171 166 162 159 159 155 153 154 154 161 134 155 165 158 159 153 151 152 149 146 144 139 135 127 116 103 99 97 89 79 73 67 60 54 42 34 27 20 8 29 43 34 38 43 41 44 38 32 28
168 165 169 168 154 145 144 146 151 153 153 155 162 172 177 170 171 168 164 161 159 160 160 133 124 145 154 164 162 156 157 156 154 151 151 149 142 137 130 124 129 127 119 109 92 82 78 77 69 61 50 40 31 20 8 44 56 34 44 46 41 31 32
168 162 160 154 148 148 151 155 156 154 150 154 163 169 176 175 175 173 170 167 165 164 154 124 142 139 153 175 192 163 163 160 162 161 160 159 151 151 141 142 144 150 144 128 129 120 106 95 96 82 59 44 33 28 28 21 9 46 40 49 46 35 22
165 163 156 152 147 149 155 158 158 157 158 158 162 173 177 177 177 174 173 172 170 164 144 141 145 153 154 166 207 203 164 168 172 169 168 166 161 158 155 151 151 151 131 144 154 133 133 127 128 124 121 119 89 45 15 12 2 359 30 49 51 42 27
151 153 150 147 148 149 154 159 161 161 158 159 168 176 182 177 176 173 174 174 169 163 145 148 152 158 159 166 182 232 164 174 179 170 173 165 164 167 165 160 157 155 153 178 159 147 145 149 154 165 169 152 108 162 206 205 240 263 345 44 43 42 32
150 149 147 144 150 157 159 159 161 161 163 166 170 178 183 178 173 173 174 177 178 169 137 149 158 161 162 170 179 242 172 173 179 171 171 165 170 169 172 168 165 158 164 182 159 162 158 162 159 137 124 114 101 66 57 42 34 27 32 35 43 43 34
157 147 143 146 153 160 166 165 163 161 163 168 175 179 179 175 168 171 173 182 179 166 138 155 159 163 162 170 182 213 178 177 179 174 171 173 174 172 177 177 174 165 167 181 118 316 316 332 151 154 132 136 129 124 86 67 31 341 344 7 24 21 20
154 150 152 158 167 172 168 163 159 159 162 166 169 173 171 172 171 172 168 173 172 154 146 163 162 163 166 173 186 201 178 187 177 181 180 175 185 174 184 187 180 172 172 173 142 184 236 291 194 154 143 133 133 135 121 129 170 217 250 276 9 351 344
151 154 156 165 172 173 163 159 158 161 165 166 169 170 167 168 171 170 171 171 174 156 155 160 167 167 171 181 203 199 183 189 177 180 180 182 187 184 147 31 327 185 179 152 150 179 222 253 224 141 166 182 160 153 142 159 172 181 197 226 223 227 220
156 161 164 165 171 168 164 160 158 161 164 164 161 159 162 163 164 165 171 172 146 158 150 154 170 171 179 189 212 212 193 183 182 180 179 182 190 187 159 176 216 350 350 132 155 180 209 237 228 155 173 197 163 149 119 186 210 205 185 202 199 208 220
166 163 158 163 162 160 154 148 156 157 153 156 154 155 160 159 160 160 157 158 156 166 150 156 172 176 185 195 220 236 191 189 184 181 187 180 189 187 179 173 157 139 83 138 159 179 201 228 268 215 210 216 197 161 163 141 5 336 95 353 46 329 330
171 164 162 155 143 154 160 155 153 151 153 151 145 150 157 152 151 144 148 150 161 160 157 157 163 178 187 200 216 244 219 196 188 185 189 186 191 183 179 186 178 129 144 142 170 174 199 222 257 287 247 311 43 37 332 189 157 256 247 212 226 225 232
167 158 121 126 135 142 147 149 155 154 156 149 147 141 138 143 143 140 141 149 156 153 143 150 159 175 191 199 221 236 256 193 204 183 198 184 188 179 182 183 162 136 146 157 169 178 191 222 241 259 52 85 67 95 267 286 228 222 230 236 241 227 267
158 154 145 135 136 134 137 141 135 130 136 138 129 123 124 126 133 136 139 149 153 149 140 133 154 169 187 201 214 240 270 300 71 264 188 187 182 171 185 143 104 127 143 154 165 174 189 193 220 224 91 106 126 249 275 248 291 267 256 241 279 268 262
153 144 142 137 107 118 132 136 138 142 150 151 151 150 156 150 146 146 159 162 155 145 143 144 157 166 172 196 207 240 267 312 189 228 203 187 186 160 180 156 123 134 141 151 156 168 167 206 234 121 146 143 197 232 251 256 229 239 246 235 231 231 240